User: anonymous   Login
Location: Unspecified
(0.0000°N, 0.0000°E)
Time: 12:31:05
(UTC+00:00)
Language:

AO-91 - Orbit

View from above orbital plane
View from above orbital plane
View from above satellite
View from above satellite

Ground track
Ground track

The orbit data is extracted from the following two-line orbital elements,

1 43017U 17073E   18170.04053462  .00000299  00000-0  29704-4 0  9990
2 43017  97.7075 101.0940 0258223 265.5993  91.5678 14.78087151 31381
Epoch (UTC): 19 June 2018 00:58:22
Eccentricity: 0.0258223
inclination: 97.7075°
perigee height: 454 km
apogee height: 816 km
right ascension of ascending node: 101.0940°
argument of perigee: 265.5993°
revolutions per day: 14.78087151
mean anomaly at epoch: 91.5678°
orbit number at epoch: 3138

The dashed part of the orbit path shows where the satellite is in the earth's shadow,  

DLR